CZ-4C R/B (47304 NORAD) Tracking and Keplerian Element Data

This shows tracking and keplerian element data for the satellite.

Feedback or suggestion? Click here.




ElementValue
Catalog47304
NameCZ-4C R/B
Epoch Orbit431
Epoch Day25.66166505
Epoch Year2021
RAAN277.1153
Inclination98.3193
Eccentricity0.0115626
Argument of Perigee310.6292
Mean Anonmoly48.4912
Mean Motion14.89140248
Decay Rate1.51E-06
L11 47304U 20103C 21025.66166505 .00000151 00000-0 21085-4 0 9996
L22 47304 98.3193 277.1153 0115626 310.6292 48.4912 14.89140248 4310

Live tracking and technical data element details for CZ-4C R/B (NORAD 47304). CZ-4C R/B can be tracked NOW for your location showing map with azimuth and elevation plus other details from your city location.

Track the satellite on the map from your city or location and see movement details for azimuth, elevation, latitude, longitude, range, height, and movement on the map or in text.







IsCatalogInMostPopularTable: catalog: 47304, numindb: 35
Update: records affected: 1



GetName: 47304 CZ-4C R/B

Hit Count: updated at: Fri, 16 Apr 2021 10:42:47 GMT